Flag for U.S.A. Weather past 2 weeks in Pasadena, California, U.S.A.

Now
57 °F

Clear.


Feels Like: 57 °F
Forecast: 56 / 82 °F
Wind: No wind

Location: Burbank-Glendale-Pasadena Airport

Current Time: Mar 30, 2015 at 6:45:25 AM

Latest Report: Mar 30, 2015 at 5:53 AM


Visibility: 10 mi

Pressure: 29.96 "Hg

Humidity: 49%

Dew point: 38 °F

Location of PasadenaLocation

Historic Weather in Pasadena — Graph

°F

Pasadena temperature yesterday

Maximum temperature yesterday: 84 °F (at 1:53 PM)
Minimum temperature yesterday: 57 °F (at 5:53 AM)
Average temperature yesterday: 69 °F

Past Weeks' High & Low Weather Summary

 TemperatureHumidityPressure
High91 °F (Mar 26, 3:53 PM)90% (Mar 21, 5:53 AM)30.16 "Hg (Mar 21, 5:53 AM)
Low53 °F (Mar 23, 6:53 AM)11% (Mar 26, 12:53 PM)29.84 "Hg (Mar 16, 5:53 PM)
Average69 °F48%29.99 "Hg
* Reported Mar 15 4:53 AM — Mar 30 4:53 AM, Pasadena, Weather by CustomWeather, © 2015

Note: Actual official high and low records may vary slightly from our data, if they occured in-between our weather recording intervals... More about our weather records

Advertising

Pasadena weather history for previous 24 hours

 ConditionsComfort  
Time TempWeatherWind HumidityBarometerVisibility
4:53 AM
Mon, Mar 30
56 °FClear.No wind60%29.96 "Hg10 mi
3:53 AM57 °FClear.No wind58%29.96 "Hg10 mi
2:53 AM59 °FClear.No wind51%29.96 "Hg10 mi
1:53 AM60 °FClear.No wind67%29.97 "Hg10 mi
12:53 AM62 °FClear.No wind80%29.98 "Hg9 mi
11:53 PM
Sun, Mar 29
63 °FClear.5 mph75%29.99 "Hg10 mi
10:53 PM64 °FClear.No wind73%29.98 "Hg10 mi
9:53 PM68 °FClear.5 mph55%29.98 "Hg10 mi
8:53 PM69 °FClear.No wind47%29.97 "Hg10 mi
7:53 PM71 °FSunny.6 mph44%29.96 "Hg10 mi
6:53 PM75 °FSunny.6 mph31%29.93 "Hg10 mi
5:53 PM79 °FSunny.8 mph24%29.93 "Hg10 mi
4:53 PM81 °FSunny.12 mph21%29.93 "Hg10 mi
3:53 PM83 °FSunny.13 mph19%29.93 "Hg10 mi
2:53 PM83 °FSunny.9 mph26%29.94 "Hg10 mi
1:53 PM84 °FSunny.8 mph22%29.96 "Hg10 mi
12:53 PM82 °FSunny.6 mph23%29.99 "Hg10 mi
11:53 AM78 °FSunny.3 mph33%30.00 "Hg10 mi
10:53 AM74 °FSunny.5 mph38%30.01 "Hg10 mi
9:53 AM69 °FSunny.No wind42%30.02 "Hg10 mi
8:53 AM63 °FSunny.No wind60%30.01 "Hg10 mi
7:53 AM59 °FSunny.5 mph64%30.02 "Hg10 mi
6:53 AM58 °FClear.No wind62%30.01 "Hg10 mi
Weather by CustomWeather, © 2015

See weather overviewHow to use our weather pages